Wind_Speed
10 10 10 10 11 12 12 12 13 13 13 12 12 12 11 11 12 12 12 13 14 14 15 15 17 18 20 21 21 21 20 19 18 17 16 15 15 15 14 13 12 11 8
8 8 9 9 10 10 11 11 11 12 12 13 13 12 12 12 12 12 13 13 13 14 15 16 17 18 19 21 23 23 22 21 20 19 18 17 17 16 16 15 14 13 11
7 7 7 8 8 9 9 10 10 11 11 12 12 13 13 12 12 13 13 14 14 14 15 16 17 19 20 21 23 24 24 24 23 22 21 20 19 18 18 17 16 15 13
6 6 6 6 7 8 8 9 9 9 10 11 12 12 12 13 13 13 13 13 14 15 16 16 17 19 20 21 22 23 25 26 26 25 24 23 22 21 20 19 19 17 16
6 6 6 6 7 7 7 8 8 9 10 10 11 11 11 12 13 13 13 14 14 15 16 17 17 18 20 21 23 23 24 26 27 27 27 27 25 24 23 22 21 20 19
6 6 6 7 7 7 7 7 8 8 9 10 10 11 11 12 12 13 14 14 15 16 17 17 17 18 20 21 23 25 25 26 27 29 30 29 29 28 27 25 24 23 22
6 6 6 7 7 7 7 8 8 9 9 10 10 11 11 12 12 13 13 14 15 16 17 18 19 19 20 22 23 24 26 27 28 29 30 32 31 31 30 29 28 26 25
6 6 7 7 8 8 8 9 9 10 10 10 11 11 11 12 12 13 13 14 15 16 17 18 19 20 21 23 24 25 26 27 29 30 30 32 33 33 33 33 31 30 28
6 7 7 8 9 9 8 8 9 9 10 11 12 13 13 13 13 13 14 15 15 16 18 19 20 21 22 23 24 26 27 27 28 31 32 33 34 35 36 35 35 33 32
6 7 7 8 8 9 9 9 9 9 10 11 13 14 14 15 15 15 15 16 17 17 18 19 20 22 23 24 26 26 28 28 29 29 31 33 36 37 37 38 38 37 35
6 7 7 8 8 8 9 10 10 11 11 12 13 14 15 16 17 17 18 18 19 20 20 20 21 22 23 24 26 27 29 30 30 31 31 32 34 37 39 39 40 40 39
6 7 7 8 8 9 10 11 12 13 13 14 15 16 16 17 18 19 20 20 21 22 23 23 24 24 24 25 27 28 29 30 32 33 34 34 34 36 38 39 41 41 41
7 8 9 10 11 11 12 13 13 15 15 16 17 17 18 18 19 20 21 22 22 23 24 25 26 27 27 28 28 29 30 31 33 34 34 35 36 37 38 38 39 42 43
10 11 12 13 14 15 15 16 17 18 18 19 19 20 20 20 20 21 22 23 24 24 25 26 27 28 30 31 31 32 32 33 34 35 36 36 37 38 39 40 40 40 43
13 14 15 16 17 17 18 18 19 20 20 21 22 23 23 23 23 23 23 24 24 25 26 27 28 29 30 32 34 35 36 36 36 37 38 38 38 39 40 41 42 42 42
15 16 17 18 19 19 20 20 21 21 22 23 24 25 25 26 26 26 25 25 26 26 28 30 30 30 31 32 34 36 38 39 40 40 40 40 41 41 41 42 43 44 44
18 19 20 21 22 22 23 23 24 24 25 25 26 27 27 28 28 27 28 28 28 28 29 30 31 32 32 33 34 36 38 40 42 43 43 44 44 44 44 43 43 44 45
21 22 23 24 24 25 25 26 26 27 27 28 29 29 30 30 30 30 30 29 29 29 29 30 32 33 34 34 34 35 37 39 41 44 45 46 47 46 47 46 46 45 46
24 25 26 26 27 27 28 28 29 29 30 30 30 31 32 32 32 32 32 31 31 31 31 31 32 34 35 36 36 36 36 38 40 42 45 47 49 50 49 49 49 48 48
27 28 29 29 30 30 31 31 31 31 31 32 33 33 34 33 34 34 33 33 33 33 33 33 34 35 36 37 38 37 37 38 39 41 43 46 49 51 52 52 51 50 50
29 31 32 32 33 33 33 33 34 34 34 35 36 36 35 35 36 35 35 35 35 35 35 35 35 36 37 38 38 38 38 38 39 40 42 45 47 49 52 53 54 53 52
32 33 34 35 35 35 36 36 36 36 37 37 38 38 38 38 38 37 37 37 37 37 37 37 37 37 37 39 39 38 38 38 38 40 41 43 46 48 50 52 54 55 54
35 36 36 37 37 38 39 39 39 39 39 39 40 40 40 39 39 39 39 39 39 39 39 39 38 38 39 39 39 38 38 38 38 39 40 40 43 45 48 50 52 54 55
38 38 39 40 41 40 42 43 43 42 42 42 42 42 42 41 42 42 41 41 41 41 41 40 39 39 39 40 39 39 39 38 38 39 40 39 41 43 46 48 49 51 53
41 42 43 44 44 44 45 46 47 46 45 45 45 44 44 44 44 44 43 42 42 43 43 41 40 39 40 40 40 39 39 39 38 39 40 39 40 42 44 46 48 50 52
45 46 47 48 49 48 48 49 49 49 48 48 47 47 47 47 46 47 46 44 43 44 44 42 41 40 40 40 40 40 39 39 38 38 40 40 40 41 41 43 46 49 51
Wind_Direction
296 294 292 290 290 289 287 283 281 279 278 277 276 272 270 270 268 267 264 261 258 258 253 250 244 238 231 227 224 223 221 219 217 215 213 211 209 207 206 205 203 202 202
298 298 297 297 296 293 291 289 285 283 280 278 276 274 273 273 270 266 263 261 260 259 255 250 245 240 234 231 228 225 223 222 220 219 217 215 213 212 210 209 208 208 208
304 304 304 306 304 300 298 296 292 289 285 282 280 277 273 272 270 266 260 258 258 258 256 254 249 243 239 235 232 229 225 224 223 222 221 219 218 216 215 213 213 213 213
312 313 312 311 311 310 307 306 301 295 291 288 284 279 276 273 273 270 266 261 258 256 256 257 254 247 242 238 236 233 230 228 226 225 223 222 221 220 219 217 217 217 217
328 328 325 321 319 318 316 314 310 303 298 295 291 286 282 278 276 274 272 268 264 260 257 257 255 249 245 244 241 239 236 232 228 227 225 224 224 223 222 221 220 221 221
334 334 331 326 322 318 316 316 315 312 307 302 297 292 287 284 281 278 275 272 268 264 261 259 255 252 249 247 245 243 241 237 233 230 227 226 225 225 224 223 223 223 224
337 338 337 334 329 324 319 315 315 315 313 309 304 299 294 289 285 281 277 273 269 266 263 261 258 255 253 250 248 247 244 242 238 235 231 228 226 226 226 226 225 226 226
338 340 339 339 337 332 326 322 318 314 311 310 308 306 302 296 290 285 280 276 272 268 266 263 260 257 256 254 252 249 247 246 243 240 238 233 229 228 228 227 227 227 228
340 342 342 341 341 338 334 330 326 322 316 312 309 306 304 301 296 290 284 279 276 272 269 267 264 261 258 255 254 252 249 248 246 243 241 238 235 232 230 229 228 228 229
343 344 345 346 345 346 346 344 342 336 329 322 315 309 305 301 298 293 288 283 280 276 273 270 267 264 261 258 256 254 252 250 248 247 245 243 239 236 233 230 230 230 230
340 344 345 346 346 347 346 345 343 339 334 328 321 316 311 305 300 295 289 285 282 279 276 273 271 268 265 262 259 256 254 252 251 250 248 246 243 241 238 234 232 231 232
332 333 333 333 332 332 333 333 331 329 327 326 323 318 313 308 303 298 292 287 284 281 279 276 273 270 268 265 262 259 256 254 252 251 249 248 246 244 242 238 235 233 232
315 315 315 316 318 317 317 318 319 319 319 319 319 318 315 311 306 301 296 290 286 283 280 278 276 273 269 266 264 262 259 257 254 252 250 249 246 245 244 241 238 235 234
307 306 307 308 309 310 309 309 310 311 310 310 310 311 310 309 308 304 299 294 290 287 283 280 277 274 272 269 265 263 261 258 256 253 251 250 248 246 245 243 241 239 237
304 304 305 305 305 305 305 306 307 307 308 308 307 308 307 305 305 303 300 295 292 289 287 284 280 277 273 270 267 264 261 258 257 255 253 251 249 248 246 244 242 241 239
299 300 299 300 301 302 303 305 305 304 305 307 307 307 306 305 304 301 299 297 293 291 289 287 284 281 276 272 268 264 262 259 257 255 254 252 250 249 247 245 243 241 241
296 298 298 298 298 298 300 301 302 302 304 306 307 307 306 305 302 300 298 297 294 292 291 289 287 284 280 275 271 267 264 260 257 255 253 252 251 250 248 246 244 243 241
293 295 297 297 298 298 299 300 302 302 304 305 306 306 306 305 302 299 298 296 295 293 292 290 288 286 283 279 275 271 267 263 259 256 254 252 251 250 248 247 245 244 242
292 294 295 296 297 298 299 299 301 302 303 304 304 305 305 304 302 300 298 296 295 295 293 291 288 287 284 281 277 274 271 266 262 259 256 254 252 250 248 247 246 245 243
291 293 294 295 296 298 298 298 299 301 302 302 302 303 303 302 302 301 298 296 295 295 294 292 289 287 285 281 278 276 273 269 265 261 258 255 253 251 249 247 246 245 243
291 292 293 294 296 297 297 297 299 299 300 301 301 302 301 301 301 300 298 297 296 295 295 293 291 288 285 282 279 276 274 271 268 264 261 257 254 252 250 247 245 244 243
291 291 293 293 295 296 296 297 298 298 299 299 299 300 300 299 298 298 297 296 296 295 295 294 292 290 286 283 280 277 274 271 269 266 263 260 256 253 252 249 246 244 243
290 291 292 292 293 294 294 296 296 296 297 298 298 298 298 298 297 297 297 296 295 294 294 294 293 290 287 284 281 277 274 271 268 267 264 261 258 255 253 251 248 245 243
290 291 291 291 291 291 293 293 294 294 295 296 296 296 296 296 296 296 296 295 294 293 293 293 292 289 286 283 280 277 274 270 267 266 264 261 260 257 254 252 249 246 244
289 289 290 291 291 290 291 291 292 293 293 293 294 294 294 294 295 295 295 295 293 292 291 292 291 287 284 281 278 276 273 271 267 266 264 261 259 258 256 253 250 247 244
288 288 289 290 290 290 289 290 290 291 291 291 292 292 293 293 293 293 293 293 293 291 291 291 289 286 283 279 277 275 273 270 268 266 264 262 259 258 257 255 252 249 245
Height
5874 5874 5874 5873 5873 5873 5872 5872 5872 5873 5873 5874 5875 5875 5876 5877 5877 5878 5878 5879 5880 5881 5882 5883 5884 5886 5888 5890 5893 5895 5898 5900 5903 5905 5907 5909 5911 5913 5915 5916 5918 5920 5921
5872 5872 5872 5871 5871 5870 5870 5870 5870 5870 5870 5871 5872 5872 5873 5873 5874 5875 5875 5876 5877 5877 5878 5879 5881 5883 5885 5887 5889 5892 5895 5897 5900 5902 5905 5907 5909 5911 5913 5915 5917 5919 5920
5871 5871 5870 5870 5869 5868 5868 5868 5868 5868 5868 5868 5869 5869 5870 5870 5871 5872 5872 5873 5874 5874 5875 5876 5877 5879 5881 5883 5885 5888 5891 5894 5896 5899 5902 5904 5907 5909 5911 5913 5915 5917 5919
5870 5869 5869 5868 5867 5867 5866 5866 5866 5866 5866 5866 5866 5866 5867 5867 5868 5868 5869 5869 5870 5871 5872 5873 5874 5875 5877 5879 5881 5884 5886 5889 5892 5895 5898 5901 5904 5906 5908 5910 5913 5915 5917
5869 5868 5868 5867 5866 5866 5865 5865 5864 5864 5864 5864 5864 5864 5864 5865 5865 5865 5866 5866 5867 5867 5868 5869 5870 5871 5873 5875 5877 5879 5882 5884 5887 5890 5893 5896 5899 5902 5905 5907 5910 5912 5914
5868 5867 5866 5866 5865 5865 5864 5864 5863 5863 5862 5862 5862 5862 5862 5862 5862 5862 5863 5863 5864 5864 5865 5866 5867 5868 5869 5871 5872 5875 5877 5879 5882 5885 5888 5891 5894 5898 5900 5903 5906 5909 5911
5867 5866 5866 5865 5864 5864 5863 5862 5862 5861 5860 5860 5860 5860 5859 5859 5859 5859 5860 5860 5860 5860 5861 5862 5863 5864 5865 5866 5868 5870 5872 5874 5876 5879 5882 5886 5889 5892 5895 5898 5901 5904 5907
5866 5865 5865 5864 5863 5862 5861 5861 5860 5859 5859 5858 5858 5857 5857 5857 5856 5856 5856 5856 5857 5857 5857 5857 5858 5859 5860 5861 5863 5865 5866 5868 5871 5873 5876 5879 5882 5886 5889 5893 5896 5899 5902
5865 5864 5863 5863 5862 5861 5860 5859 5858 5857 5857 5856 5855 5855 5854 5854 5853 5853 5853 5853 5852 5853 5853 5853 5853 5854 5855 5856 5857 5859 5861 5862 5864 5867 5869 5872 5875 5879 5883 5886 5890 5893 5897
5864 5863 5862 5861 5861 5860 5859 5858 5857 5856 5855 5854 5853 5852 5851 5850 5850 5849 5849 5849 5848 5848 5848 5848 5849 5849 5850 5851 5852 5853 5854 5856 5858 5860 5862 5865 5868 5871 5875 5879 5883 5886 5890
5862 5861 5861 5860 5859 5858 5857 5856 5855 5854 5853 5851 5850 5849 5847 5847 5846 5845 5845 5844 5844 5843 5843 5843 5843 5844 5844 5845 5846 5847 5848 5850 5851 5853 5855 5858 5860 5864 5867 5871 5875 5879 5883
5861 5860 5859 5858 5857 5856 5855 5854 5852 5851 5850 5849 5847 5846 5844 5843 5841 5840 5839 5839 5838 5838 5837 5837 5837 5838 5838 5838 5839 5840 5841 5843 5844 5846 5848 5850 5853 5855 5859 5862 5866 5870 5874
5859 5858 5857 5856 5855 5854 5853 5851 5850 5848 5847 5845 5844 5842 5840 5838 5837 5835 5834 5832 5832 5831 5831 5830 5830 5830 5831 5831 5832 5833 5834 5835 5836 5838 5840 5842 5845 5847 5850 5853 5857 5861 5865
5856 5855 5855 5854 5852 5851 5849 5848 5846 5845 5843 5841 5839 5838 5836 5834 5832 5830 5828 5826 5825 5824 5824 5823 5823 5822 5822 5823 5823 5824 5825 5827 5828 5830 5832 5834 5836 5839 5841 5845 5848 5852 5856
5853 5852 5851 5850 5848 5847 5845 5844 5842 5840 5838 5836 5834 5832 5830 5828 5826 5824 5822 5820 5819 5817 5816 5815 5814 5814 5814 5814 5814 5815 5816 5817 5819 5820 5822 5825 5827 5829 5832 5835 5839 5842 5846
5849 5848 5847 5845 5844 5842 5840 5839 5837 5835 5833 5831 5828 5826 5824 5822 5819 5817 5815 5813 5812 5810 5808 5806 5805 5805 5805 5804 5804 5805 5805 5807 5808 5810 5812 5814 5817 5819 5822 5825 5829 5832 5836
5844 5843 5842 5840 5839 5837 5835 5833 5831 5829 5826 5824 5822 5819 5817 5814 5812 5810 5808 5806 5804 5802 5800 5798 5796 5795 5794 5794 5794 5794 5794 5795 5797 5798 5801 5803 5806 5808 5811 5815 5818 5821 5825
5839 5837 5836 5834 5833 5831 5828 5826 5824 5822 5820 5817 5815 5812 5809 5807 5804 5802 5799 5797 5795 5794 5792 5790 5787 5785 5784 5783 5783 5783 5783 5784 5785 5786 5788 5791 5794 5797 5800 5803 5807 5810 5814
5832 5831 5829 5828 5826 5824 5821 5819 5817 5815 5812 5810 5807 5804 5801 5799 5796 5793 5791 5788 5786 5784 5783 5781 5778 5776 5774 5772 5772 5772 5772 5772 5773 5774 5775 5778 5781 5784 5787 5791 5794 5799 5803
5825 5823 5822 5820 5818 5816 5814 5811 5809 5807 5804 5801 5798 5796 5793 5790 5787 5784 5781 5779 5777 5774 5772 5771 5768 5766 5764 5761 5761 5761 5761 5760 5761 5762 5763 5765 5767 5770 5774 5778 5782 5786 5790
5817 5815 5813 5811 5809 5807 5805 5803 5801 5798 5796 5793 5790 5787 5784 5781 5778 5775 5772 5769 5766 5764 5761 5759 5757 5755 5753 5750 5749 5749 5749 5749 5749 5749 5750 5752 5754 5757 5759 5763 5767 5772 5777
5808 5806 5804 5802 5800 5798 5796 5794 5791 5789 5786 5783 5780 5777 5774 5771 5768 5765 5762 5759 5756 5753 5750 5748 5746 5744 5741 5739 5738 5737 5737 5737 5737 5737 5738 5739 5740 5743 5745 5749 5753 5758 5763
5799 5797 5795 5793 5791 5788 5786 5783 5781 5778 5776 5773 5770 5766 5763 5760 5757 5754 5751 5748 5745 5742 5739 5737 5734 5732 5729 5727 5726 5725 5725 5725 5725 5724 5725 5727 5727 5730 5732 5735 5739 5744 5749
5789 5787 5785 5782 5780 5778 5775 5772 5769 5766 5764 5762 5758 5755 5752 5749 5745 5742 5739 5736 5733 5730 5727 5725 5723 5720 5717 5715 5713 5713 5712 5713 5713 5712 5713 5715 5715 5717 5719 5722 5725 5729 5734
5778 5776 5773 5771 5768 5766 5763 5760 5756 5754 5752 5749 5746 5743 5740 5737 5733 5729 5727 5724 5721 5717 5714 5712 5710 5707 5705 5702 5701 5700 5700 5700 5701 5700 5700 5702 5703 5704 5706 5709 5712 5715 5720
5766 5764 5761 5758 5755 5753 5750 5746 5743 5740 5738 5736 5732 5729 5726 5723 5720 5716 5713 5711 5708 5704 5701 5699 5697 5694 5692 5690 5688 5688 5687 5687 5688 5689 5688 5689 5691 5692 5695 5696 5698 5702 5706